EW8277 Weather Reports


time (UTC)temp
C
wind
direction
speed
KPH
gust
KPH
rain 1hr
cm
rain 24hr
cm
rain mn
cm
humidity
%
barometer
mb
20260503010039 11 154 0.0 0.0 0.00 0.00 0.00 62 1012.6
20260503004518 11 154 0.0 0.0 0.00 0.00 0.00 65 1012.5
20260503003027 12 154 0.0 0.0 0.00 0.00 0.00 69 1012.3
20260503001555 12 154 0.0 0.0 0.00 0.00 0.00 71 1012.1
20260503000051 13 154 0.0 0.0 0.00 0.00 0.00 72 1011.7
20260502234547 13 154 0.0 0.0 0.00 0.00 0.00 71 1011.5
20260502233025 14 154 0.0 0.0 0.00 0.00 0.00 69 1011.2
20260502231507 14 154 0.0 0.0 0.00 0.00 0.00 67 1011.1
20260502230006 15 154 0.0 0.0 0.00 0.00 0.00 66 1011.1
20260502224548 15 154 0.0 0.0 0.00 0.00 0.00 66 1011.0
20260502223100 14 154 0.0 0.0 0.00 0.00 0.00 66 1011.0
20260502221536 14 154 0.0 0.0 0.00 0.00 0.00 67 1011.0
20260502220040 14 20 0.0 0.0 0.00 0.00 0.00 65 1010.9
20260502214542 14 20 0.0 0.0 0.00 0.00 0.00 65 1010.9
20260502213037 14 20 0.0 0.0 0.00 0.00 0.00 65 1010.8
20260502211535 15 29 0.0 0.0 0.00 0.00 0.00 65 1010.7
20260502210029 15 46 0.0 0.0 0.00 0.00 0.00 67 1010.8
20260502204537 15 46 0.0 0.0 0.00 0.00 0.00 67 1010.8
20260502203041 15 59 0.0 0.0 0.00 0.00 0.00 67 1010.8
20260502201507 15 24 0.0 0.0 0.00 0.00 0.00 68 1010.8
20260502200003 15 71 0.0 0.0 0.00 0.00 0.00 66 1010.8
20260502194543 15 71 0.0 0.0 0.00 0.00 0.00 66 1010.9
20260502193037 16 72 0.0 0.0 0.00 0.00 0.00 63 1011.1
20260502191521 16 71 0.0 1.6 0.00 0.00 0.00 65 1011.1
20260502190020 16 45 0.0 0.0 0.00 0.00 0.00 65 1011.1
20260502184515 15 45 0.0 0.0 0.00 0.00 0.00 65 1011.2
20260502183008 15 45 0.0 0.0 0.00 0.00 0.00 66 1011.4
20260502181504 15 45 0.0 0.0 0.00 0.00 0.00 67 1011.7
20260502163037 13 42 0.0 0.0 0.00 0.00 0.00 68 1012.6
20260502161525 13 24 0.0 0.0 0.00 0.00 0.00 68 1013.2
20260502151559 13 63 0.0 0.0 0.00 0.00 0.00 66 1012.7
20260502123031 12 65 0.0 0.0 0.00 0.00 0.00 63 1012.4
20260502121524 12 77 0.0 0.0 0.00 0.00 0.00 57 1012.1
20260502114606 11 198 0.0 0.0 0.00 0.00 0.00 48 1012.0
20260502113109 11 136 0.0 0.0 0.00 0.00 0.00 47 1012.0
20260502111551 11 136 0.0 0.0 0.00 0.00 0.00 46 1011.9
20260502110047 12 136 0.0 0.0 0.00 0.00 0.00 46 1012.2
20260502104542 12 136 0.0 0.0 0.00 0.00 0.00 43 1012.3
20260502103039 12 136 0.0 0.0 0.00 0.00 0.00 31 1012.2
20260502101539 12 136 0.0 0.0 0.00 0.00 0.00 11 1012.3
20260502080108 11 136 0.0 0.0 0.00 0.00 0.00 2 1011.5
20260502070036 11 136 0.0 0.0 0.00 0.00 0.00 100 1011.3
20260502064530 11 136 0.0 0.0 0.00 0.00 0.00 100 1011.3
20260502063011 11 136 0.0 0.0 0.00 0.00 0.00 100 1011.5
20260502061505 11 136 0.0 0.0 0.00 0.00 0.00 100 1011.5
20260502060050 11 136 0.0 0.0 0.00 0.00 0.00 100 1011.4
20260502054539 11 136 0.0 0.0 0.00 0.00 0.00 100 1011.6
20260502053024 11 136 0.0 0.0 0.00 0.00 0.00 100 1011.8
20260502051527 11 136 0.0 0.0 0.00 0.00 0.00 1 1011.9
20260502050015 11 136 0.0 0.0 0.00 0.00 0.00 6 1012.1
20260502044510 11 136 0.0 0.0 0.00 0.00 0.00 7 1012.1
20260502043007 11 136 0.0 0.0 0.00 0.00 0.00 13 1012.2
20260502041507 11 136 0.0 0.0 0.00 0.00 0.00 14 1012.1
20260502040005 11 136 0.0 0.0 0.00 0.00 0.00 16 1012.3
20260502034504 11 136 0.0 0.0 0.00 0.00 0.00 19 1012.5
20260502033048 11 136 0.0 0.0 0.00 0.00 0.00 21 1012.4
20260502031543 11 136 0.0 0.0 0.00 0.00 0.00 26 1012.3
20260502030030 11 136 0.0 0.0 0.00 0.00 0.00 33 1012.5
20260502024529 12 136 0.0 0.0 0.00 0.00 0.00 35 1012.6
20260502023025 12 136 0.0 0.0 0.00 0.00 0.00 40 1012.5
20260502021527 12 136 0.0 0.0 0.00 0.00 0.00 43 1012.6
20260502020021 12 136 0.0 0.0 0.00 0.00 0.00 46 1012.5
20260502014520 12 136 0.0 0.0 0.00 0.00 0.00 50 1012.6
20260502013017 12 136 0.0 0.0 0.00 0.00 0.00 54 1012.6
20260502011516 12 136 0.0 0.0 0.00 0.00 0.00 58 1012.4